Powrót do katalogu

DELTA 1 DEB

AktywnySSO
NORAD 40771·DEBRIS·🇺🇸 United States

Wystrzelony Jul 29, 1976 z Vandenberg Space Force Base

Loading…

Następne Przeloty (najbliższe 24 godziny)

TLE

ŚwieżeSource: Space-Track

Epoka: Sep 14, 2026, 10:49 UTC

1 40771U 76077GQ  26257.45090470 -.00000003  00000-0  32154-3 0  9999
2 40771 102.2097 238.5825 0014723  50.2335 104.4937 12.40121241549802

Śledź DELTA 1 DEB w czasie rzeczywistym z AllMySat

Download on the App Store